When you browse on this site, cookies collect data to enhance your experience and personalize the content and advertising you see.
Visit our Privacy Policy to learn more. By continuing to use the site, you agree to this use of cookies and data.
  • In Latvia
  • List of Countries
  • For 7 days
  • Water Temperature
  • Weather Map
  • Weather Widgets
  • user-avatar
    Login

    Hourly Weather Dundee

    Today, 18 September, Wednesday

    Time Temperature Precipitation Wind Pressure Humidity
    00:00 +8°C° 0 mm 0 mps 760 mmHg 80%
    01:00 +8°C° 0 mm 0 mps 760 mmHg 79%
    02:00 +9°C° 0 mm 0 mps 760 mmHg 79%
    03:00 +9°C° 0 mm 0 mps 760 mmHg 78%
    04:00 +10°C° 0 mm 1 mps 760 mmHg 78%
    05:00 +10°C° 0 mm 1 mps 760 mmHg 78%
    06:00 +9°C° 0 mm 1 mps 760 mmHg 78%
    07:00 +10°C° 0 mm 1 mps 760 mmHg 75%
    08:00 +11°C° 0 mm 1 mps 760 mmHg 72%
    09:00 +12°C° 0 mm 1 mps 760 mmHg 69%
    10:00 +13°C° 0 mm 2 mps 760 mmHg 68%
    11:00 +14°C° 0 mm 2 mps 760 mmHg 67%
    12:00 +15°C° 0 mm 2 mps 760 mmHg 66%
    13:00 +16°C° 0 mm 2 mps 760 mmHg 67%
    14:00 +17°C° 0 mm 3 mps 760 mmHg 68%
    15:00 +18°C° 0 mm 3 mps 760 mmHg 69%
    16:00 +17°C° 0 mm 2 mps 760 mmHg 74%
    17:00 +16°C° 0 mm 2 mps 760 mmHg 78%
    18:00 +15°C° 0 mm 2 mps 760 mmHg 83%
    19:00 +14°C° 0 mm 2 mps 760 mmHg 86%
    20:00 +13°C° 0 mm 2 mps 761 mmHg 89%
    21:00 +10°C° 0 mm 2 mps 761 mmHg 92%
    22:00 +10°C° 0 mm 2 mps 761 mmHg 92%
    23:00 +10°C° 0 mm 2 mps 761 mmHg 92%

    Tomorrow, 19 September, Thursday

    Time Temperature Precipitation Wind Pressure Humidity
    00:00 +10°C° 0 mm 2 mps 761 mmHg 93%
    01:00 +11°C° 0 mm 1 mps 761 mmHg 93%
    02:00 +11°C° 0 mm 1 mps 761 mmHg 93%
    03:00 +10°C° 0 mm 1 mps 761 mmHg 93%
    04:00 +9°C° 0 mm 2 mps 761 mmHg 94%
    05:00 +9°C° 0 mm 2 mps 761 mmHg 94%
    06:00 +9°C° 0 mm 2 mps 761 mmHg 94%
    07:00 +10°C° 0 mm 2 mps 761 mmHg 90%
    08:00 +13°C° 0 mm 2 mps 761 mmHg 86%
    09:00 +14°C° 0 mm 1 mps 762 mmHg 81%
    10:00 +15°C° 0 mm 2 mps 762 mmHg 78%
    11:00 +16°C° 0 mm 2 mps 762 mmHg 75%
    12:00 +17°C° 0 mm 2 mps 761 mmHg 71%
    13:00 +18°C° 0 mm 2 mps 761 mmHg 71%
    14:00 +18°C° 0 mm 2 mps 761 mmHg 71%
    15:00 +18°C° 0 mm 2 mps 761 mmHg 71%
    16:00 +17°C° 0 mm 2 mps 761 mmHg 77%
    17:00 +16°C° 0 mm 2 mps 761 mmHg 82%
    18:00 +15°C° 0 mm 2 mps 760 mmHg 88%
    19:00 +14°C° 0 mm 2 mps 760 mmHg 89%
    20:00 +13°C° 0 mm 2 mps 761 mmHg 91%
    21:00 +13°C° 0 mm 2 mps 761 mmHg 92%
    22:00 +12°C° 0 mm 2 mps 760 mmHg 92%
    23:00 +12°C° 0 mm 2 mps 760 mmHg 93%

    Day after tomorrow, 20 September, Friday

    Time Temperature Precipitation Wind Pressure Humidity
    00:00 +12°C° 0 mm 2 mps 760 mmHg 93%
    01:00 +10°C° 0 mm 2 mps 760 mmHg 93%
    02:00 +10°C° 0 mm 2 mps 759 mmHg 93%
    03:00 +10°C° 0 mm 2 mps 759 mmHg 93%
    04:00 +10°C° 0 mm 2 mps 759 mmHg 93%
    05:00 +9°C° 0 mm 2 mps 758 mmHg 93%
    06:00 +10°C° 0 mm 1 mps 758 mmHg 93%
    07:00 +12°C° 0 mm 2 mps 758 mmHg 88%
    08:00 +13°C° 0 mm 2 mps 758 mmHg 83%
    09:00 +15°C° 0 mm 2 mps 758 mmHg 79%
    10:00 +16°C° 0 mm 2 mps 757 mmHg 74%
    11:00 +18°C° 0 mm 2 mps 757 mmHg 69%
    12:00 +19°C° 0 mm 2 mps 757 mmHg 65%
    13:00 +19°C° 0 mm 2 mps 756 mmHg 66%
    14:00 +19°C° 0 mm 2 mps 756 mmHg 67%
    15:00 +19°C° 0 mm 2 mps 755 mmHg 68%
    16:00 +18°C° 0 mm 2 mps 755 mmHg 75%
    17:00 +16°C° 0 mm 2 mps 754 mmHg 82%
    18:00 +15°C° 0 mm 2 mps 754 mmHg 90%
    19:00 +14°C° 0 mm 2 mps 754 mmHg 91%
    20:00 +14°C° 0 mm 2 mps 754 mmHg 92%
    21:00 +13°C° 0 mm 2 mps 753 mmHg 92%
    22:00 +13°C° 0 mm 2 mps 753 mmHg 92%
    23:00 +13°C° 0 mm 2 mps 753 mmHg 92%

    21 September, Saturday

    Time Temperature Precipitation Wind Pressure Humidity
    00:00 +12°C° 0 mm 2 mps 752 mmHg 92%
    01:00 +12°C° 0 mm 2 mps 752 mmHg 92%
    02:00 +11°C° 0 mm 3 mps 752 mmHg 93%
    03:00 +10°C° 0 mm 3 mps 751 mmHg 93%
    04:00 +10°C° 0 mm 3 mps 751 mmHg 93%
    05:00 +9°C° 0 mm 3 mps 750 mmHg 93%
    06:00 +9°C° 0 mm 3 mps 750 mmHg 94%
    07:00 +10°C° 0 mm 4 mps 750 mmHg 91%
    08:00 +12°C° 0 mm 4 mps 749 mmHg 88%
    09:00 +13°C° 0 mm 4 mps 749 mmHg 85%
    10:00 +14°C° 0 mm 5 mps 749 mmHg 82%
    11:00 +15°C° 0 mm 5 mps 748 mmHg 78%
    12:00 +15°C° 0 mm 6 mps 748 mmHg 75%
    13:00 +15°C° 0 mm 6 mps 747 mmHg 76%
    14:00 +15°C° 0 mm 6 mps 747 mmHg 77%
    15:00 +15°C° 0 mm 6 mps 746 mmHg 78%
    16:00 +14°C° 0 mm 5 mps 746 mmHg 82%
    17:00 +13°C° 0 mm 5 mps 746 mmHg 86%
    18:00 +11°C° 0 mm 4 mps 745 mmHg 90%
    19:00 +11°C° 0 mm 4 mps 745 mmHg 92%
    20:00 +11°C° 0 mm 4 mps 745 mmHg 93%
    21:00 +10°C° 0 mm 4 mps 745 mmHg 94%
    22:00 +10°C° 0 mm 3 mps 744 mmHg 94%
    23:00 +10°C° 0 mm 3 mps 744 mmHg 94%

    22 September, Sunday

    Time Temperature Precipitation Wind Pressure Humidity
    00:00 +10°C° 0 mm 3 mps 744 mmHg 95%
    01:00 +10°C° 0 mm 3 mps 743 mmHg 95%
    02:00 +10°C° 0 mm 3 mps 743 mmHg 95%
    03:00 +10°C° 0 mm 3 mps 742 mmHg 95%
    04:00 +10°C° 0 mm 3 mps 742 mmHg 95%
    05:00 +10°C° 0 mm 3 mps 742 mmHg 95%
    06:00 +10°C° 0 mm 3 mps 741 mmHg 95%
    07:00 +11°C° 0 mm 3 mps 741 mmHg 94%
    08:00 +13°C° 0 mm 2 mps 741 mmHg 93%
    09:00 +13°C° 0 mm 2 mps 741 mmHg 92%
    10:00 +14°C° 0.4 mm 2 mps 741 mmHg 93%
    11:00 +14°C° 0.4 mm 2 mps 741 mmHg 93%
    12:00 +14°C° 0.4 mm 1 mps 741 mmHg 94%
    13:00 +14°C° 0.5 mm 1 mps 741 mmHg 95%
    14:00 +14°C° 0.5 mm 1 mps 741 mmHg 96%
    15:00 +13°C° 0.5 mm 0 mps 741 mmHg 97%
    16:00 +13°C° 0 mm 0 mps 741 mmHg 96%
    17:00 +12°C° 0 mm 0 mps 741 mmHg 96%
    18:00 +13°C° 0 mm 1 mps 741 mmHg 96%
    19:00 +13°C° 0 mm 1 mps 741 mmHg 96%
    20:00 +13°C° 0 mm 1 mps 741 mmHg 95%
    21:00 +13°C° 0 mm 1 mps 742 mmHg 95%
    22:00 +12°C° 0 mm 1 mps 742 mmHg 94%
    23:00 +12°C° 0 mm 1 mps 742 mmHg 94%

    23 September, Monday

    Time Temperature Precipitation Wind Pressure Humidity
    00:00 +12°C° 0 mm 1 mps 742 mmHg 93%
    01:00 +12°C° 0 mm 1 mps 742 mmHg 93%
    02:00 +12°C° 0 mm 1 mps 742 mmHg 92%
    03:00 +12°C° 0 mm 1 mps 742 mmHg 91%
    04:00 +11°C° 0 mm 1 mps 742 mmHg 92%
    05:00 +11°C° 0 mm 1 mps 743 mmHg 92%
    06:00 +11°C° 0 mm 1 mps 743 mmHg 93%
    07:00 +12°C° 0 mm 2 mps 743 mmHg 90%
    08:00 +13°C° 0 mm 2 mps 743 mmHg 88%
    09:00 +14°C° 0 mm 2 mps 743 mmHg 85%
    10:00 +15°C° 0 mm 2 mps 743 mmHg 81%
    11:00 +16°C° 0 mm 2 mps 743 mmHg 77%
    12:00 +17°C° 0 mm 2 mps 743 mmHg 73%
    13:00 +17°C° 0 mm 2 mps 743 mmHg 72%
    14:00 +17°C° 0 mm 3 mps 743 mmHg 71%
    15:00 +17°C° 0 mm 3 mps 743 mmHg 69%
    16:00 +14°C° 0 mm 3 mps 742 mmHg 75%
    17:00 +14°C° 0 mm 2 mps 742 mmHg 81%
    18:00 +13°C° 0 mm 2 mps 742 mmHg 87%
    19:00 +13°C° 0.1 mm 2 mps 742 mmHg 88%
    20:00 +12°C° 0.1 mm 2 mps 742 mmHg 89%
    21:00 +12°C° 0.1 mm 1 mps 742 mmHg 90%
    22:00 +12°C° 0.1 mm 1 mps 742 mmHg 90%
    23:00 +12°C° 0.1 mm 1 mps 742 mmHg 90%
    Show more